User: anonymous   Login
Location: Étouvelles
(49.5207°N, 3.5808°E)
Time: 11:08:51
(UTC+00:00)
Language:

YAOGAN 1 - Orbit

View from above orbital plane
View from above orbital plane
View from above satellite
View from above satellite

Ground track
Ground track

The orbit data is extracted from the following two-line orbital elements,

1 29092U 06015A   23151.06271170  .00000823  00000-0  10482-3 0  9991
2 29092  97.8390 178.5823 0001516  92.4317 267.7071 14.84134441924585
Epoch (UTC): 31 May 2023 01:30:18
Eccentricity: 0.0001516
inclination: 97.8390°
perigee height: 615 km
apogee height: 617 km
right ascension of ascending node: 178.5823°
argument of perigee: 92.4317°
revolutions per day: 14.84134441
mean anomaly at epoch: 267.7071°
orbit number at epoch: 92458

The dashed part of the orbit path shows where the satellite is in the earth's shadow,  

DLR